Location: Newark
(40.3820°N, 3.6624°W)
Time: 20:37:18
(UTC+00:00)

N. Korean satellite - Pass Details

Date: 20 November 2019
Orbit: 456 x 506 km, 97.2° (Epoch: 09 December)

Event Time Altitude Azimuth Distance (km) Brightness Sun altitude
Rises 05:43:19 0° 19° (NNE) 2,610 10.4 -15.7°
Reaches altitude 10° 05:45:30 10° 26° (NNE) 1,716 9.5 -15.3°
Maximum altitude 05:49:01 41° 98° (E) 730 8.0 -14.6°
Drops below altitude 10° 05:52:28 10° 170° (S) 1,680 9.6 -14.0°
Sets 05:54:35 0° 178° (S) 2,547 10.4 -13.6°
